Time,TemperatureF,DewpointF,PressureIn,WindDirection,WindDirectionDegrees,WindSpeedMPH,WindSpeedGustMPH,Humidity,HourlyPrecipIn,Conditions,Clouds,dailyrainin,SoftwareType,DateUTC
2013-05-31 00:02:00,75.0,67.0,29.94,South,169,0.0,6.0,77,0.00,,,0.03,,2013-05-31 04:02:00,
2013-05-31 00:12:00,75.0,67.0,29.94,South,169,0.0,6.0,77,0.00,,,0.03,,2013-05-31 04:12:00,
2013-05-31 00:22:00,76.0,68.0,29.94,SSW,202,0.0,5.0,76,0.00,,,0.03,,2013-05-31 04:22:00,
2013-05-31 00:33:00,75.0,67.0,29.93,SE,144,0.0,2.0,77,0.00,,,0.03,,2013-05-31 04:33:00,
2013-05-31 00:42:00,75.0,67.0,29.93,SE,144,0.0,2.0,77,0.00,,,0.03,,2013-05-31 04:42:00,
2013-05-31 00:53:00,75.0,68.0,29.94,South,191,1.0,4.0,78,0.00,,,0.03,,2013-05-31 04:53:00,
2013-05-31 01:02:00,75.0,68.0,29.93,SSE,160,0.0,3.0,78,0.00,,,0.03,,2013-05-31 05:02:00,
2013-05-31 01:12:00,75.0,68.0,29.93,SSE,160,0.0,3.0,78,0.00,,,0.03,,2013-05-31 05:12:00,
2013-05-31 01:22:00,74.0,67.0,29.93,SSE,157,0.0,5.0,79,0.00,,,0.03,,2013-05-31 05:22:00,
2013-05-31 01:32:00,75.0,68.0,29.94,SSE,168,1.0,9.0,78,0.00,,,0.03,,2013-05-31 05:32:00,
2013-05-31 01:42:00,75.0,68.0,29.94,SSE,168,1.0,9.0,78,0.00,,,0.03,,2013-05-31 05:42:00,
2013-05-31 01:52:00,75.0,67.0,29.94,SSW,204,3.0,7.0,77,0.00,,,0.03,,2013-05-31 05:52:00,
2013-05-31 02:02:00,75.0,67.0,29.94,SSE,168,2.0,10.0,77,0.00,,,0.03,,2013-05-31 06:02:00,
2013-05-31 02:12:00,75.0,67.0,29.94,SSE,168,2.0,10.0,77,0.00,,,0.03,,2013-05-31 06:12:00,
2013-05-31 02:22:00,74.0,67.0,29.93,South,184,2.0,7.0,78,0.00,,,0.03,,2013-05-31 06:22:00,
2013-05-31 02:32:00,74.0,67.0,29.93,SSE,153,2.0,7.0,79,0.00,,,0.03,,2013-05-31 06:32:00,
2013-05-31 02:42:00,74.0,67.0,29.93,SSE,153,2.0,7.0,79,0.00,,,0.03,,2013-05-31 06:42:00,
2013-05-31 02:51:00,74.0,67.0,29.93,SSW,205,3.0,7.0,79,0.00,,,0.03,,2013-05-31 06:51:00,
2013-05-31 03:02:00,74.0,67.0,29.92,SE,144,2.0,7.0,79,0.00,,,0.03,,2013-05-31 07:02:00,
2013-05-31 03:11:00,74.0,67.0,29.92,SE,144,2.0,7.0,79,0.00,,,0.03,,2013-05-31 07:11:00,
2013-05-31 03:21:00,73.0,67.0,29.92,South,177,0.0,3.0,81,0.00,,,0.03,,2013-05-31 07:21:00,
2013-05-31 03:32:00,73.0,67.0,29.91,SE,146,2.0,6.0,81,0.00,,,0.03,,2013-05-31 07:32:00,
2013-05-31 03:41:00,73.0,67.0,29.91,SE,146,2.0,6.0,81,0.00,,,0.03,,2013-05-31 07:41:00,
2013-05-31 03:52:00,73.0,67.0,29.91,South,184,1.0,6.0,81,0.00,,,0.03,,2013-05-31 07:52:00,
2013-05-31 04:02:00,73.0,67.0,29.91,SSW,196,1.0,7.0,81,0.00,,,0.03,,2013-05-31 08:02:00,
2013-05-31 04:11:00,73.0,67.0,29.91,SSW,196,1.0,7.0,81,0.00,,,0.03,,2013-05-31 08:11:00,
2013-05-31 04:22:00,72.0,66.0,29.91,SSW,199,1.0,6.0,82,0.00,,,0.03,,2013-05-31 08:22:00,
2013-05-31 04:32:00,72.0,66.0,29.91,South,182,1.0,6.0,82,0.00,,,0.03,,2013-05-31 08:32:00,
2013-05-31 04:42:00,72.0,66.0,29.91,South,182,1.0,6.0,82,0.00,,,0.03,,2013-05-31 08:42:00,
2013-05-31 04:52:00,72.0,66.0,29.91,SSW,202,1.0,6.0,82,0.00,,,0.03,,2013-05-31 08:52:00,
2013-05-31 05:01:00,72.0,66.0,29.91,SSW,194,1.0,7.0,82,0.00,,,0.03,,2013-05-31 09:01:00,
2013-05-31 05:11:00,72.0,66.0,29.91,SSW,194,1.0,7.0,82,0.00,,,0.03,,2013-05-31 09:11:00,
2013-05-31 05:21:00,72.0,66.0,29.91,South,173,0.0,7.0,81,0.00,,,0.03,,2013-05-31 09:21:00,
2013-05-31 05:32:00,72.0,66.0,29.91,South,169,1.0,5.0,82,0.00,,,0.03,,2013-05-31 09:32:00,
2013-05-31 05:43:00,72.0,66.0,29.91,South,169,1.0,5.0,82,0.00,,,0.03,,2013-05-31 09:43:00,
2013-05-31 05:53:00,71.0,65.0,29.90,WSW,258,0.0,7.0,82,0.00,,,0.03,,2013-05-31 09:53:00,
2013-05-31 06:02:00,71.0,65.0,29.90,SSW,195,2.0,9.0,82,0.00,,,0.03,,2013-05-31 10:02:00,
2013-05-31 06:12:00,71.0,65.0,29.90,SSW,195,2.0,9.0,82,0.00,,,0.03,,2013-05-31 10:12:00,
2013-05-31 06:22:00,71.0,66.0,29.90,SSW,193,2.0,6.0,83,0.00,,,0.03,,2013-05-31 10:22:00,
2013-05-31 06:33:00,71.0,66.0,29.90,SE,142,1.0,6.0,83,0.00,,,0.03,,2013-05-31 10:33:00,
2013-05-31 06:42:00,71.0,66.0,29.90,SE,142,1.0,6.0,83,0.00,,,0.03,,2013-05-31 10:42:00,
2013-05-31 06:52:00,70.0,65.0,29.90,East,80,0.0,5.0,85,0.00,,,0.03,,2013-05-31 10:52:00,
2013-05-31 07:02:00,70.0,65.0,29.90,South,187,1.0,5.0,85,0.00,,,0.03,,2013-05-31 11:02:00,
2013-05-31 07:12:00,70.0,65.0,29.90,South,187,1.0,5.0,85,0.00,,,0.03,,2013-05-31 11:12:00,
2013-05-31 07:22:00,71.0,66.0,29.90,South,183,2.0,10.0,84,0.00,,,0.03,,2013-05-31 11:22:00,
2013-05-31 07:32:00,71.0,66.0,29.91,South,182,1.0,9.0,83,0.00,,,0.03,,2013-05-31 11:32:00,
2013-05-31 07:42:00,71.0,66.0,29.91,South,182,1.0,9.0,83,0.00,,,0.03,,2013-05-31 11:42:00,
2013-05-31 07:52:00,72.0,66.0,29.91,SSW,199,3.0,9.0,82,0.00,,,0.03,,2013-05-31 11:52:00,
2013-05-31 08:01:00,73.0,67.0,29.91,SSW,194,3.0,10.0,81,0.00,,,0.03,,2013-05-31 12:01:00,
2013-05-31 08:11:00,73.0,67.0,29.91,SSW,194,3.0,10.0,81,0.00,,,0.03,,2013-05-31 12:11:00,
2013-05-31 08:22:00,73.0,66.0,29.91,SSW,209,4.0,14.0,80,0.00,,,0.03,,2013-05-31 12:22:00,
2013-05-31 08:32:00,73.0,66.0,29.91,South,188,3.0,10.0,79,0.00,,,0.03,,2013-05-31 12:32:00,
2013-05-31 08:42:00,73.0,66.0,29.91,South,188,3.0,10.0,79,0.00,,,0.03,,2013-05-31 12:42:00,
2013-05-31 08:52:00,74.0,67.0,29.91,SSW,195,4.0,9.0,79,0.00,,,0.03,,2013-05-31 12:52:00,
2013-05-31 09:01:00,75.0,68.0,29.91,South,178,5.0,11.0,78,0.00,,,0.03,,2013-05-31 13:01:00,
2013-05-31 09:11:00,75.0,68.0,29.91,South,178,5.0,11.0,78,0.00,,,0.03,,2013-05-31 13:11:00,
2013-05-31 09:21:00,75.0,67.0,29.91,South,190,5.0,12.0,77,0.00,,,0.03,,2013-05-31 13:21:00,
2013-05-31 09:32:00,75.0,68.0,29.92,WSW,257,5.0,9.0,78,0.00,,,0.03,,2013-05-31 13:32:00,
2013-05-31 09:42:00,75.0,68.0,29.92,WSW,257,5.0,9.0,78,0.00,,,0.03,,2013-05-31 13:42:00,
2013-05-31 09:52:00,75.0,68.0,29.91,WSW,240,3.0,10.0,78,0.00,,,0.03,,2013-05-31 13:52:00,
2013-05-31 10:02:00,75.0,68.0,29.91,WSW,257,4.0,9.0,78,0.00,,,0.03,,2013-05-31 14:02:00,
2013-05-31 10:11:00,75.0,68.0,29.91,WSW,257,4.0,9.0,78,0.00,,,0.03,,2013-05-31 14:11:00,
2013-05-31 10:21:00,76.0,68.0,29.91,West,259,5.0,14.0,76,0.00,,,0.03,,2013-05-31 14:21:00,
2013-05-31 10:32:00,75.0,69.0,29.91,SW,236,2.0,14.0,81,0.00,,,0.03,,2013-05-31 14:32:00,
2013-05-31 10:42:00,75.0,69.0,29.91,SW,236,2.0,14.0,81,0.00,,,0.03,,2013-05-31 14:42:00,
2013-05-31 10:52:00,73.0,68.0,29.91,WSW,250,4.0,9.0,84,0.00,,,0.03,,2013-05-31 14:52:00,
2013-05-31 11:01:00,73.0,68.0,29.91,West,262,3.0,9.0,84,0.00,,,0.03,,2013-05-31 15:01:00,
2013-05-31 11:11:00,73.0,68.0,29.91,West,262,3.0,9.0,84,0.00,,,0.03,,2013-05-31 15:11:00,
2013-05-31 11:21:00,74.0,68.0,29.91,SW,234,3.0,8.0,83,0.00,,,0.03,,2013-05-31 15:21:00,
2013-05-31 11:33:00,74.0,68.0,29.91,SSW,206,4.0,9.0,81,0.00,,,0.03,,2013-05-31 15:33:00,
2013-05-31 11:43:00,74.0,68.0,29.91,SSW,206,4.0,9.0,81,0.00,,,0.03,,2013-05-31 15:43:00,
2013-05-31 11:53:00,74.0,68.0,29.90,SSW,197,3.0,10.0,82,0.00,,,0.03,,2013-05-31 15:53:00,
2013-05-31 12:03:00,75.0,69.0,29.91,SW,219,6.0,13.0,81,0.00,,,0.03,,2013-05-31 16:03:00,
2013-05-31 12:12:00,75.0,69.0,29.91,SW,219,6.0,13.0,81,0.00,,,0.03,,2013-05-31 16:12:00,
2013-05-31 12:22:00,75.0,68.0,29.92,WNW,300,7.0,14.0,80,0.00,,,0.03,,2013-05-31 16:22:00,
2013-05-31 12:33:00,75.0,67.0,29.91,SW,225,7.0,17.0,77,0.00,,,0.03,,2013-05-31 16:33:00,
2013-05-31 12:42:00,75.0,67.0,29.91,SW,225,7.0,17.0,77,0.00,,,0.03,,2013-05-31 16:42:00,
2013-05-31 12:53:00,74.0,67.0,29.91,WSW,244,4.0,15.0,79,0.00,,,0.03,,2013-05-31 16:53:00,
2013-05-31 13:02:00,73.0,67.0,29.93,SW,220,4.0,14.0,82,0.00,,,0.02,,2013-05-31 17:02:00,
2013-05-31 13:12:00,73.0,67.0,29.93,SW,220,4.0,14.0,82,0.00,,,0.02,,2013-05-31 17:12:00,
2013-05-31 13:22:00,73.0,68.0,29.93,SW,232,6.0,11.0,84,0.00,,,0.02,,2013-05-31 17:22:00,
2013-05-31 13:32:00,72.0,67.0,29.93,SW,228,5.0,13.0,85,0.00,,,0.02,,2013-05-31 17:32:00,
2013-05-31 13:42:00,72.0,67.0,29.93,SW,228,5.0,13.0,85,0.00,,,0.02,,2013-05-31 17:42:00,
2013-05-31 13:52:00,72.0,68.0,29.93,SW,223,5.0,10.0,86,0.00,,,0.02,,2013-05-31 17:52:00,
2013-05-31 14:02:00,72.0,68.0,29.92,WSW,249,3.0,9.0,87,0.00,,,0.02,,2013-05-31 18:02:00,
2013-05-31 14:12:00,72.0,68.0,29.92,WSW,249,3.0,9.0,87,0.00,,,0.02,,2013-05-31 18:12:00,
2013-05-31 14:22:00,72.0,68.0,29.92,WSW,256,3.0,11.0,87,0.00,,,0.02,,2013-05-31 18:22:00,
2013-05-31 14:32:00,72.0,68.0,29.92,WSW,256,3.0,11.0,87,0.00,,,0.02,,2013-05-31 18:32:00,
2013-05-31 14:42:00,72.0,68.0,29.92,WSW,256,3.0,11.0,87,0.00,,,0.02,,2013-05-31 18:42:00,
2013-05-31 14:52:00,72.0,67.0,29.91,SSW,196,5.0,11.0,85,0.00,,,0.02,,2013-05-31 18:52:00,
2013-05-31 15:02:00,73.0,69.0,29.90,WSW,254,3.0,9.0,86,0.00,,,0.02,,2013-05-31 19:02:00,
2013-05-31 15:11:00,73.0,69.0,29.90,WSW,254,3.0,9.0,86,0.00,,,0.02,,2013-05-31 19:11:00,
2013-05-31 15:22:00,73.0,69.0,29.89,SSW,205,3.0,9.0,87,0.00,,,0.02,,2013-05-31 19:22:00,
2013-05-31 15:32:00,73.0,70.0,29.89,South,190,3.0,6.0,89,0.00,,,0.02,,2013-05-31 19:32:00,
2013-05-31 15:42:00,73.0,70.0,29.89,South,190,3.0,6.0,89,0.00,,,0.02,,2013-05-31 19:42:00,
2013-05-31 15:52:00,72.0,69.0,29.89,SW,229,2.0,8.0,89,0.00,,,0.02,,2013-05-31 19:52:00,
2013-05-31 16:02:00,73.0,69.0,29.88,SW,219,2.0,8.0,88,0.00,,,0.02,,2013-05-31 20:02:00,
2013-05-31 16:11:00,73.0,69.0,29.88,SW,219,2.0,8.0,88,0.00,,,0.02,,2013-05-31 20:11:00,
2013-05-31 16:22:00,73.0,68.0,29.87,South,179,4.0,12.0,85,0.00,,,0.02,,2013-05-31 20:22:00,
2013-05-31 16:32:00,74.0,69.0,29.86,SSW,207,3.0,13.0,85,0.00,,,0.02,,2013-05-31 20:32:00,
2013-05-31 16:42:00,74.0,69.0,29.86,SSW,207,3.0,13.0,85,0.00,,,0.02,,2013-05-31 20:42:00,
2013-05-31 16:52:00,74.0,70.0,29.85,South,187,5.0,9.0,86,0.00,,,0.02,,2013-05-31 20:52:00,
2013-05-31 17:01:00,72.0,68.0,29.85,SW,222,6.0,12.0,87,0.00,,,0.02,,2013-05-31 21:01:00,
2013-05-31 17:11:00,72.0,68.0,29.85,SW,222,6.0,12.0,87,0.00,,,0.02,,2013-05-31 21:11:00,
2013-05-31 17:22:00,72.0,68.0,29.85,WSW,247,2.0,12.0,88,0.00,,,0.02,,2013-05-31 21:22:00,
2013-05-31 17:32:00,73.0,69.0,29.86,South,176,3.0,12.0,86,0.00,,,0.02,,2013-05-31 21:32:00,
2013-05-31 17:42:00,73.0,69.0,29.86,South,176,3.0,12.0,86,0.00,,,0.02,,2013-05-31 21:42:00,
2013-05-31 17:54:00,73.0,69.0,29.86,SSW,202,3.0,11.0,87,0.00,,,0.02,,2013-05-31 21:54:00,
2013-05-31 18:02:00,74.0,68.0,29.85,South,183,4.0,10.0,83,0.00,,,0.02,,2013-05-31 22:02:00,
2013-05-31 18:12:00,74.0,68.0,29.85,South,183,4.0,10.0,83,0.00,,,0.02,,2013-05-31 22:12:00,
2013-05-31 18:22:00,74.0,68.0,29.86,WSW,250,4.0,8.0,83,0.00,,,0.02,,2013-05-31 22:22:00,
2013-05-31 18:33:00,74.0,68.0,29.86,WSW,250,4.0,8.0,83,0.00,,,0.02,,2013-05-31 22:33:00,
2013-05-31 18:42:00,74.0,68.0,29.85,SSW,209,4.0,14.0,82,0.00,,,0.02,,2013-05-31 22:42:00,
2013-05-31 18:52:00,74.0,68.0,29.85,SSW,209,4.0,14.0,82,0.00,,,0.02,,2013-05-31 22:52:00,
2013-05-31 19:02:00,75.0,68.0,29.85,SW,221,4.0,14.0,80,0.00,,,0.02,,2013-05-31 23:02:00,
2013-05-31 19:12:00,75.0,68.0,29.85,SW,221,4.0,14.0,80,0.00,,,0.02,,2013-05-31 23:12:00,
2013-05-31 19:21:00,75.0,68.0,29.84,South,190,4.0,10.0,80,0.00,,,0.02,,2013-05-31 23:21:00,
2013-05-31 19:32:00,76.0,69.0,29.84,SW,220,3.0,8.0,80,0.00,,,0.02,,2013-05-31 23:32:00,
2013-05-31 19:42:00,76.0,69.0,29.84,SW,220,3.0,8.0,80,0.00,,,0.02,,2013-05-31 23:42:00,
2013-05-31 19:52:00,75.0,68.0,29.83,South,182,3.0,7.0,79,0.00,,,0.02,,2013-05-31 23:52:00,
2013-05-31 20:01:00,75.0,68.0,29.83,SSW,212,1.0,6.0,80,0.00,,,0.02,,2013-06-01 00:01:00,
2013-05-31 20:12:00,75.0,68.0,29.83,SSW,212,1.0,6.0,80,0.00,,,0.02,,2013-06-01 00:12:00,
2013-05-31 20:22:00,75.0,69.0,29.84,SW,234,1.0,5.0,81,0.00,,,0.02,,2013-06-01 00:22:00,
2013-05-31 20:32:00,75.0,69.0,29.83,ESE,123,0.0,3.0,82,0.00,,,0.02,,2013-06-01 00:32:00,
2013-05-31 20:42:00,75.0,69.0,29.83,SW,217,1.0,5.0,82,0.00,,,0.02,,2013-06-01 00:42:00,
2013-05-31 20:52:00,75.0,69.0,29.83,SW,217,1.0,5.0,82,0.00,,,0.02,,2013-06-01 00:52:00,
2013-05-31 21:02:00,75.0,69.0,29.83,South,184,0.0,4.0,83,0.00,,,0.02,,2013-06-01 01:02:00,
2013-05-31 21:11:00,75.0,69.0,29.83,South,184,0.0,4.0,83,0.00,,,0.02,,2013-06-01 01:11:00,
2013-05-31 21:22:00,74.0,68.0,29.83,ENE,64,3.0,7.0,82,0.00,,,0.02,,2013-06-01 01:22:00,
2013-05-31 21:32:00,74.0,69.0,29.83,South,188,2.0,7.0,84,0.00,,,0.02,,2013-06-01 01:32:00,
2013-05-31 21:42:00,73.0,69.0,29.83,SW,231,3.0,7.0,86,0.00,,,0.02,,2013-06-01 01:42:00,
2013-05-31 21:52:00,73.0,69.0,29.83,SW,231,3.0,7.0,86,0.00,,,0.02,,2013-06-01 01:52:00,
2013-05-31 22:02:00,72.0,68.0,29.84,SW,236,2.0,5.0,88,0.00,,,0.02,,2013-06-01 02:02:00,
2013-05-31 22:12:00,72.0,68.0,29.84,SW,236,2.0,5.0,88,0.00,,,0.02,,2013-06-01 02:12:00,
2013-05-31 22:21:00,72.0,68.0,29.84,SW,223,2.0,8.0,88,0.00,,,0.01,,2013-06-01 02:21:00,
2013-05-31 22:32:00,72.0,68.0,29.85,South,182,2.0,7.0,88,0.00,,,0.01,,2013-06-01 02:32:00,
2013-05-31 22:42:00,71.0,67.0,29.84,South,187,2.0,8.0,88,0.00,,,0.01,,2013-06-01 02:42:00,
2013-05-31 22:52:00,71.0,67.0,29.84,South,187,2.0,8.0,88,0.00,,,0.01,,2013-06-01 02:52:00,
2013-05-31 23:02:00,71.0,68.0,29.84,SW,224,1.0,6.0,89,0.00,,,0.01,,2013-06-01 03:02:00,
2013-05-31 23:11:00,71.0,68.0,29.84,SW,224,1.0,6.0,89,0.00,,,0.01,,2013-06-01 03:11:00,
2013-05-31 23:22:00,71.0,67.0,29.85,SSW,206,3.0,6.0,88,0.00,,,0.00,,2013-06-01 03:22:00,
2013-05-31 23:33:00,71.0,66.0,29.87,WNW,288,8.0,22.0,85,0.00,,,0.00,,2013-06-01 03:33:00,
2013-05-31 23:43:00,64.0,62.0,29.91,West,280,7.0,15.0,94,0.00,,,0.00,,2013-06-01 03:43:00,
2013-05-31 23:53:00,64.0,62.0,29.91,West,280,7.0,15.0,94,0.00,,,0.00,,2013-06-01 03:53:00,